Flag for U.S.A. Weather past 2 weeks in Tampa, Florida, U.S.A.

Now
58 °F

Passing clouds.


Feels Like: 57 °F
Forecast: 55 / 64 °F
Wind: 7 mph from Southwest

Location: Tampa International Airport

Current Time: Jan 25, 2015 at 7:53:22 PM

Latest Report: Jan 25, 2015 at 6:53 PM


Visibility: 10 mi

Pressure: 30.02 "Hg

Humidity: 70%

Dew point: 48 °F

Location of TampaLocation

Historic Weather in Tampa — Graph

°F

Tampa temperature yesterday

Maximum temperature yesterday: 70 °F (at 12:53 AM)
Minimum temperature yesterday: 51 °F (at 10:53 PM)
Average temperature yesterday: 62 °F

Past Weeks' High & Low Weather Summary

 TemperatureHumidityPressure
High80 °F (Jan 22, 2:53 PM)96% (Jan 13, 5:53 AM)30.36 "Hg (Jan 13, 5:53 AM)
Low46 °F (Jan 25, 5:53 AM)23% (Jan 19, 2:53 PM)29.83 "Hg (Jan 24, 4:53 AM)
Average63 °F76%30.12 "Hg
* Reported Jan 10 6:53 PM — Jan 25 6:53 PM, Tampa, Weather by CustomWeather, © 2014

Note: Actual official high and low records may vary slightly from our data, if they occured in-between our weather recording intervals... More about our weather records

Advertising

Tampa weather history for previous 24 hours

 ConditionsComfort  
Time TempWeatherWind HumidityBarometerVisibility
6:53 PM
Jan 25
58 °FPassing clouds.7 mph70%30.02 "Hg10 mi
5:53 PM59 °FPartly sunny.8 mph64%30.01 "Hg10 mi
4:53 PM61 °FPartly sunny.7 mph58%30.00 "Hg10 mi
3:53 PM62 °FPartly sunny.5 mph56%29.98 "Hg10 mi
2:53 PM62 °FPartly sunny.5 mph52%30.00 "Hg10 mi
1:53 PM61 °FPartly sunny.5 mph52%30.02 "Hg10 mi
12:53 PM60 °FPartly sunny.8 mph52%30.05 "Hg10 mi
11:53 AM60 °FPassing clouds.3 mph46%30.09 "Hg10 mi
10:53 AM57 °FPassing clouds.6 mph49%30.11 "Hg10 mi
9:53 AM55 °FPassing clouds.8 mph51%30.12 "Hg10 mi
8:53 AM51 °FPassing clouds.7 mph56%30.11 "Hg10 mi
7:53 AM48 °FPassing clouds.7 mph66%30.10 "Hg10 mi
6:53 AM49 °FPassing clouds.6 mph74%30.11 "Hg10 mi
5:53 AM46 °FPassing clouds.3 mph86%30.09 "Hg10 mi
4:53 AM48 °FPassing clouds.No wind86%30.06 "Hg10 mi
3:53 AM48 °FPassing clouds.No wind86%30.05 "Hg10 mi
2:53 AM49 °FPassing clouds.No wind86%30.05 "Hg10 mi
1:53 AM50 °FClear.No wind83%30.05 "Hg10 mi
12:53 AM50 °FClear.3 mph80%30.04 "Hg10 mi
11:53 PM
Jan 24
51 °FPassing clouds.No wind80%30.05 "Hg10 mi
10:53 PM51 °FPassing clouds.6 mph80%30.05 "Hg10 mi
9:53 PM53 °FPassing clouds.5 mph74%30.06 "Hg10 mi
8:53 PM54 °FPassing clouds.6 mph72%30.05 "Hg10 mi
7:53 PM54 °FPassing clouds.5 mph77%30.03 "Hg10 mi
Weather by CustomWeather, © 2014

See weather overviewHow to use our weather pages